Location: Newark
(51.6850°N, 0.3180°W)
Time: 06:16:14
(UTC+00:00)

OTV 5 (USA 277) - Visible Passes

Search period start: 22 October 2019 00:00
Search period end: 01 November 2019 00:00
Orbit: 310 x 324 km, 54.5° (Epoch: 17 October)

Date Brightness Start Highest point End Pass type
(mag) Time Alt. Az. Time Alt. Az. Time Alt. Az.
29 Oct ? 18:52:50 10° SSW 18:53:10 12° SSW 18:53:10 12° SSW visible
30 Oct ? 17:35:22 10° SE 17:35:56 10° SE 17:36:30 10° ESE visible
30 Oct ? 19:07:02 10° SW 19:07:33 14° SW 19:07:33 14° SW visible
31 Oct ? 17:48:03 10° SSW 17:50:12 21° SE 17:50:56 19° ESE visible
31 Oct ? 19:21:32 10° WSW 19:21:50 12° WSW 19:21:50 12° WSW visible
